Islamorada, Florida Weather Center

Moon Phase Calendar



Online Cameras

 


      

Current Conditions in Islamorada
6/14/2021 4:23:05 AM

81°F
Feels Like 87
Clear
Humidity
87%
Pressure
29.91"
Wind
15.6 mph (WSW)
Dew Point
77°F
UV Index
0/10 (Low)
Visibility
6 mi

Hourly Forecast

Date & Time Mon, Jun 14
4:00 AM
Mon, Jun 14
5:00 AM
Mon, Jun 14
6:00 AM
Mon, Jun 14
7:00 AM
Mon, Jun 14
8:00 AM
Mon, Jun 14
9:00 AM
Mon, Jun 14
10:00 AM
Mon, Jun 14
11:00 AM
Mon, Jun 14
12:00 PM
Mon, Jun 14
1:00 PM
Mon, Jun 14
2:00 PM
Mon, Jun 14
3:00 PM
Mon, Jun 14
4:00 PM
Mon, Jun 14
5:00 PM
Mon, Jun 14
6:00 PM
Mon, Jun 14
7:00 PM
Mon, Jun 14
8:00 PM
Mon, Jun 14
9:00 PM
Mon, Jun 14
10:00 PM
Mon, Jun 14
11:00 PM
Tue, Jun 15
12:00 AM
Tue, Jun 15
1:00 AM
Tue, Jun 15
2:00 AM
Tue, Jun 15
3:00 AM
Tue, Jun 15
4:00 AM
Tue, Jun 15
5:00 AM
Tue, Jun 15
6:00 AM
Tue, Jun 15
7:00 AM
Tue, Jun 15
8:00 AM
Tue, Jun 15
9:00 AM
Tue, Jun 15
10:00 AM
Tue, Jun 15
11:00 AM
Tue, Jun 15
12:00 PM
Tue, Jun 15
1:00 PM
Tue, Jun 15
2:00 PM
Tue, Jun 15
3:00 PM
Tue, Jun 15
4:00 PM
Tue, Jun 15
5:00 PM
Tue, Jun 15
6:00 PM
Tue, Jun 15
7:00 PM
Tue, Jun 15
8:00 PM
Tue, Jun 15
9:00 PM
Tue, Jun 15
10:00 PM
Tue, Jun 15
11:00 PM
Wed, Jun 16
12:00 AM
Wed, Jun 16
1:00 AM
Wed, Jun 16
2:00 AM
Wed, Jun 16
3:00 AM
Condition
Clear

Clear

Clouds

Clouds

Rain

Rain

Rain

Rain

Rain

Rain

Rain

Rain

Rain

Clouds

Clouds

Clouds

Clouds

Clouds

Rain

Rain

Clouds

Clouds

Clouds

Clouds

Clouds

Clouds

Clouds

Rain

Rain

Rain

Rain

Clouds

Clouds

Clouds

Clouds

Clouds

Clouds

Clouds

Clouds

Clouds

Clouds

Clouds

Clouds

Clouds

Clouds

Clouds

Clouds

Clouds
Temperature 81°F81°F82°F83°F83°F83°F83°F82°F83°F84°F83°F79°F80°F81°F82°F83°F83°F84°F84°F84°F84°F83°F83°F84°F84°F84°F84°F84°F83°F83°F83°F84°F84°F84°F85°F85°F85°F85°F85°F85°F85°F85°F85°F84°F84°F84°F84°F84°F
Feels Like 87°F88°F89°F89°F89°F89°F89°F87°F89°F89°F88°F79°F80°F85°F87°F88°F88°F88°F89°F89°F89°F89°F89°F89°F90°F90°F90°F90°F89°F89°F90°F90°F90°F90°F90°F91°F91°F90°F90°F90°F90°F90°F90°F89°F90°F89°F89°F90°F
Cloudiness 9%10%17%28%41%100%100%100%100%100%100%100%100%100%100%100%100%100%100%100%100%100%96%60%75%83%87%90%92%98%98%99%99%99%99%100%100%100%96%93%94%78%89%93%94%96%96%100%
Visibility 6 mi6 mi6 mi6 mi6 mi6 mi6 mi6 mi6 mi6 mi3 mi6 mi6 mi6 mi6 mi6 mi6 mi6 mi6 mi6 mi6 mi6 mi6 mi6 mi6 mi6 mi6 mi6 mi6 mi6 mi6 mi6 mi6 mi6 mi6 mi6 mi6 mi6 mi6 mi6 mi6 mi6 mi6 mi6 mi6 mi6 mi6 mi6 mi
Precipitation 1%11%17%50%89%94%100%100%100%100%100%99%100%79%79%79%78%22%46%57%51%47%43%0%7%14%14%39%46%66%64%53%49%47%43%0%0%1%1%1%1%1%2%2%1%6%10%20%
Humidity 87%83%80%76%75%71%70%74%70%68%71%81%78%75%70%67%67%63%65%66%67%69%70%69%68%68%69%69%70%72%72%71%70%68%66%66%66%65%65%65%65%65%65%64%64%64%65%67%
Dew Point 77°F76°F75°F74°F74°F73°F72°F73°F72°F72°F73°F73°F72°F72°F72°F71°F71°F70°F71°F71°F71°F72°F72°F72°F72°F72°F73°F73°F73°F73°F73°F73°F73°F73°F72°F72°F72°F72°F72°F72°F72°F72°F72°F71°F71°F71°F71°F72°F
Pressure 29.91"29.91"29.91"29.91"29.94"29.97"29.97"30"30"29.97"29.97"29.97"29.97"29.97"29.97"29.97"29.97"29.97"30"30"30"30"30"29.97"29.97"29.97"30"30"30.03"30.03"30.06"30.06"30.06"30.06"30.03"30.03"30.03"30.03"30"30"30.03"30.06"30.06"30.06"30.06"30.03"30"30"
Wind Speed 15.6 mph14.6 mph13.2 mph12.4 mph13.3 mph16.4 mph19.8 mph17.1 mph17.4 mph15.9 mph22.1 mph19.9 mph15.5 mph12.8 mph9.6 mph9.3 mph8.6 mph3.6 mph9.4 mph7.9 mph7.8 mph9.3 mph10.8 mph11.2 mph11.2 mph11.1 mph11.3 mph10.5 mph9.5 mph8.5 mph7.6 mph6.7 mph6.6 mph6.9 mph6.9 mph8 mph8.3 mph7.4 mph6.8 mph5.5 mph6.6 mph5.6 mph5.2 mph2.7 mph1.6 mph0.8 mph3.3 mph6.1 mph
Wind
Direction
237°
WSW
234°
SW
232°
SW
227°
SW
216°
SW
220°
SW
234°
SW
245°
WSW
229°
SW
224°
SW
237°
WSW
271°
W
259°
W
252°
WSW
259°
W
259°
W
266°
W
215°
SW
177°
S
185°
S
191°
S
199°
SSW
203°
SSW
209°
SSW
214°
SW
215°
SW
214°
SW
213°
SSW
207°
SSW
206°
SSW
203°
SSW
200°
SSW
203°
SSW
208°
SSW
205°
SSW
208°
SSW
213°
SSW
220°
SW
223°
SW
238°
WSW
213°
SSW
200°
SSW
178°
S
189°
S
223°
SW
52°
NE
138°
SE
132°
SE

Daily Forecast

Date High Low Precip. Humidity
Today
Jun 14

Rain
84 °F
79 °F
100%
68%
Tuesday
Jun 15

Rain
85 °F
83 °F
66%
68%
Wednesday
Jun 16

Rain
85 °F
77 °F
100%
73%
Thursday
Jun 17

Rain
84 °F
82 °F
63%
72%
Friday
Jun 18

Rain
85 °F
84 °F
57%
72%
Saturday
Jun 19

Rain
85 °F
84 °F
20%
73%
Sunday
Jun 20

Rain
85 °F
84 °F
41%
74%
Monday
Jun 21

Rain
84 °F
84 °F
97%
75%
Tuesday
Jun 22

Rain
85 °F
84 °F
98%
75%
Wednesday
Jun 23

Rain
85 °F
84 °F
39%
75%
Thursday
Jun 24

Clouds
84 °F
84 °F
2%
70%
Friday
Jun 25

Clouds
84 °F
83 °F
29%
68%
Saturday
Jun 26

Rain
85 °F
83 °F
25%
74%
Sunday
Jun 27

Rain
84 °F
84 °F
38%
73%
Monday
Jun 28

Clouds
84 °F
83 °F
25%
69%
Tuesday
Jun 29

Rain
84 °F
83 °F
39%
70%

Temperature 8-14 Day Outlook



Precipitation 8-14 Day Outlook




Quick Links
Islamorada, Florida News
Islamorada, Florida Photos
Islamorada, Florida Videos




About Us
Contact Us
Site Map
Search Site
Advertise With Us
   
Islamorada.CoastalTown.com
THE ISLAMORADA, FLORIDA WEBSITE

Copyright 2021, Coastal Town
Privacy    |    Legal